[[{"header":{"parameterUnit":"m.s-1","parameterCategory":2,"la1":30.2991,"la2":30.254,"lo1":-89.0895,"lo2":-89.0444,"dy":0.0017,"dx":0.0017,"nx":28,"ny":28,"refTime":"2023-08-09T09:00:00:Z","depth":"0","parameterNumber":2,"parameterNumberName":"U-component_of_CURRENTS"},"data":[0,0,0,0,0,0,0,0,0,0,0,0,0,0,0,0,0,0,0,0,0,0,0,0,0,0,0,0,0,0,0,0,0,0,0,0,0,0,0,0,0,0,0,0,0,0,0,0,0,0,0,0,0,0,0,0,0,0,0.3185,0.3184,0,0.3206,0.3207,0.3208,0.3154,0.3151,0.3149,0.3146,0.3405,0.3414,0.3423,0,0,0,0,0,0,0,0,0,0,0,0,0,0.3269,0.3268,0.3185,0.3184,0.3183,0.3205,0.3207,0.3208,0.3155,0.3151,0.3148,0.3145,0.3402,0.3413,0.3424,0,0,0,0,0,0,0,0,0,0,0,0,0,0.3265,0.3267,0.3185,0.3152,0.3148,0.3205,0.3207,0.3208,0.3155,0.3151,0.3147,0.3144,0.3398,0.3412,0.3426,0.3591,0,0,0.3469,0.3475,0,0,0,0,0,0,0,0,0.3265,0.3263,0.3157,0.3154,0.315,0.3164,0.333,0.3345,0.3156,0.3164,0.3146,0.3142,0.3343,0.3361,0.3385,0.3603,0.3614,0.347,0.3478,0.3484,0.3488,0,0,0,0,0,0,0,0.3265,0.3263,0.3203,0.3157,0.3152,0.3194,0.3188,0.3334,0.3288,0.3163,0.3156,0.3143,0.3343,0.3371,0.3391,0.3618,0.3469,0.3482,0.349,0.3496,0.4053,0.4059,0,0,0,0,0,0,0.3237,0.3262,0.3203,0.3203,0.3187,0.3194,0.3188,0.3172,0.3281,0.3288,0.3147,0.3141,0.335,0.3375,0.34,0.3587,0.3484,0.3497,0.3505,0.4047,0.4054,0.4061,0,0,0,0,0,0,0.3239,0.3232,0.3201,0.3225,0.3223,0.3194,0.3178,0.3174,0.3188,0.3264,0.3277,0.316,0.3347,0.3381,0.3543,0.3597,0.3504,0.3516,0.4039,0.4049,0.4058,0.3972,0,0,0,0,0,0,0.3242,0.3233,0.3251,0.3223,0.322,0.3253,0.318,0.3177,0.3182,0.3174,0.3282,0.3301,0.3347,0.3522,0.3557,0.3615,0.3527,0.4031,0.4043,0.4055,0.3967,0.3978,0.3987,0,0,0,0,0,0.3245,0.3293,0.3252,0.3246,0.3232,0.3255,0.3261,0.3234,0.3186,0.3227,0.3291,0.3297,0.3623,0.3538,0.3578,0.364,0.4025,0.404,0.4054,0.3963,0.3976,0.3987,0,0,0,0,0,0,0.3399,0.329,0.3244,0.3272,0.3261,0.3241,0.3282,0.3246,0.3325,0.3318,0.3375,0.3405,0.3567,0.3654,0.3558,0.3852,0.3831,0.3853,0.3748,0.3762,0.3772,0.3683,0.3539,0,0,0,0,0,0.3423,0.3397,0.3331,0.3365,0.3349,0.3313,0.3326,0.3292,0.3331,0.3355,0.3422,0.3536,0.3669,0.3743,0.3877,0.4046,0.4011,0.4126,0.4136,0.4143,0.411,0.4139,0.4143,0.4108,0.4108,0.4108,0,0,0.3501,0.3435,0.3431,0.3391,0.3375,0.338,0.3315,0.3329,0.335,0.3387,0.3486,0.3576,0.3727,0.3889,0.3973,0.3957,0.413,0.4161,0.4164,0.4127,0.4154,0.4155,0.4156,0.4118,0.4116,0.4115,0,0,0.3604,0.3571,0.3554,0.3536,0.3481,0.3465,0.3461,0.3437,0.3445,0.3547,0.3579,0.3689,0.3902,0.3987,0.4067,0.4239,0.418,0.431,0.4281,0.431,0.4309,0.4307,0.4192,0.4181,0.4314,0.4314,0.4314,0,0.3697,0.3639,0.358,0.3557,0.354,0.3494,0.3491,0.3528,0.3568,0.3579,0.3582,0.3818,0.3943,0.4096,0.4146,0.4248,0.4196,0.4194,0.4305,0.4304,0.4304,0.4187,0.4175,0.4311,0.4312,0.4312,0.4312,0,0.3738,0.3713,0.3722,0.364,0.3654,0.3653,0.3639,0.367,0.3663,0.3665,0.3785,0.3924,0.4031,0.4126,0.4185,0.4278,0.4212,0.4293,0.4225,0.4298,0.4175,0.4163,0.4308,0.4309,0.431,0.431,0,0,0.3832,0.3752,0.3743,0.3689,0.3668,0.3659,0.3728,0.3731,0.3712,0.3803,0.3795,0.4036,0.402,0.4114,0.42,0.4242,0.419,0.425,0.4252,0.4043,0.4117,0.3909,0.3876,0.4263,0.4263,0.4263,0.3997,0,0.3851,0.3802,0.3772,0.3757,0.3716,0.3705,0.375,0.3766,0.3783,0.3788,0.3893,0.3952,0.4048,0.4061,0.4125,0.4188,0.4171,0.4245,0.4159,0.4153,0.3886,0.3863,0.3703,0.3441,0.3986,0.3984,0.3983,0,0.3826,0.3789,0.3758,0.37,0.3682,0.3688,0.366,0.3692,0.3724,0.3733,0.3784,0.3831,0.3912,0.398,0.4038,0.4064,0.4068,0.4101,0.4094,0.3915,0.3928,0.3488,0.3401,0.3351,0.3966,0.3967,0.3969,0,0.3783,0.3751,0.3707,0.3693,0.3663,0.3643,0.3635,0.3654,0.3633,0.3658,0.3616,0.3725,0.3722,0.3803,0.386,0.3934,0.3854,0.3981,0.3772,0.3752,0.3608,0.3575,0.3388,0.3982,0.3982,0.3983,0.3984,0,0.3735,0.3689,0.3666,0.3624,0.3551,0.3569,0.3493,0.3502,0.3494,0.3417,0.3547,0.3488,0.3679,0.3664,0.3756,0.3662,0.3762,0.37,0.3678,0.3572,0.3541,0.349,0.3497,0.3973,0.3975,0.3977,0.3979,0,0.3636,0.364,0.3554,0.3522,0.35,0.3428,0.3357,0.3298,0.3322,0.3215,0.3205,0.3269,0.3232,0.335,0.3421,0.3457,0.3329,0.3403,0.3175,0.3132,0.2902,0.2912,0.255,0.2504,0.3106,0.3099,0.3093,0,0.3564,0.3511,0.3438,0.3368,0.3327,0.3243,0.317,0.3186,0.3105,0.305,0.2962,0.2928,0.2852,0.2828,0.2913,0.2917,0.2991,0.2746,0.2912,0.2786,0.2786,0.2749,0.2741,0.2657,0.2649,0.2642,0.2636,0,0.3408,0.3378,0.3319,0.3161,0.3062,0.2965,0.2859,0.2779,0.2756,0.2677,0.2522,0.247,0.2435,0.2368,0.2385,0.2427,0.2579,0.2593,0.2581,0.2469,0.2302,0.2281,0.285,0.2572,0.2579,0.2583,0.2587,0.2589,0.3268,0.3158,0.3052,0.2872,0.2801,0.264,0.2483,0.2406,0.2248,0.2059,0.2119,0.1966,0.1993,0.2006,0.2015,0.1947,0.2072,0.1963,0.1984,0.1956,0.1909,0.2234,0.1889,0.1891,0.1893,0.1895,0.1897,0,0.2965,0.2866,0.2742,0.2524,0.2371,0.2397,0.2218,0.2046,0.1789,0.1728,0.1585,0.1491,0.1427,0.1503,0.148,0.1406,0.1464,0.1379,0.1379,0.1417,0.1795,0.1784,0.1258,0.1258,0.1258,0.1258,0.1258,0.1258,0.2796,0.256,0.246,0.2115,0.1997,0.1729,0.1589,0.1425,0.1334,0.1103,0.1007,0.1029,0.1127,0.1074,0.1022,0.1029,0.105,0.0877,0.0997,0.1371,0.1433,0.1492,0.1486,0.0906,0.0905,0.059,0.0587,0.0585]},{"header":{"parameterUnit":"m.s-1","parameterCategory":2,"la1":30.2991,"la2":30.254,"lo1":-89.0895,"lo2":-89.0444,"dy":0.0017,"dx":0.0017,"nx":28,"ny":28,"refTime":"2023-08-09T09:00:00:Z","depth":"0","parameterNumber":3,"parameterNumberName":"V-component_of_CURRENTS"},"data":[0,0,0,0,0,0,0,0,0,0,0,0,0,0,0,0,0,0,0,0,0,0,0,0,0,0,0,0,0,0,0,0,0,0,0,0,0,0,0,0,0,0,0,0,0,0,0,0,0,0,0,0,0,0,0,0,0,0,-0.0091,-0.0088,0,0.0179,0.0182,0.0186,0.0232,0.0229,0.0226,0.0224,0.0559,0.057,0.0582,0,0,0,0,0,0,0,0,0,0,0,0,0,-0.0379,-0.0374,-0.0091,-0.0088,-0.0085,0.0178,0.0182,0.0187,0.0232,0.0229,0.0226,0.0222,0.0555,0.0569,0.0583,0,0,0,0,0,0,0,0,0,0,0,0,0,-0.0191,-0.0373,-0.0091,-0.0035,-0.0028,0.0177,0.0183,0.0188,0.0233,0.0229,0.0225,0.0221,0.0551,0.0568,0.0585,0.0777,0,0,0.0638,0.0645,0,0,0,0,0,0,0,0,-0.0202,-0.018,-0.0046,-0.0039,-0.003,0.0162,0.0204,0.0386,0.0234,0.0141,0.0224,0.0219,0.0432,0.0459,0.0526,0.0793,0.0807,0.0639,0.065,0.0657,0.0662,0,0,0,0,0,0,0,-0.0215,-0.019,0.0022,-0.0043,-0.0033,0.004,0.0061,0.024,0.0313,0.0148,0.0151,0.0173,0.0437,0.0509,0.0535,0.0812,0.0639,0.0654,0.0665,0.0672,0.1286,0.1292,0,0,0,0,0,0,-0.0264,-0.0202,0.0013,0.0029,-0.0135,0.0048,0.0072,0.011,0.0309,0.0333,0.0176,0.0174,0.0482,0.0514,0.0547,0.0812,0.0657,0.0673,0.0683,0.1281,0.1288,0.1294,0,0,0,0,0,0,-0.0271,-0.0247,0.0002,-0.0087,-0.0051,0.0055,0.0099,0.0117,0.0189,0.0328,0.0354,0.0226,0.048,0.0522,0.0745,0.0823,0.0681,0.0697,0.1274,0.1283,0.1291,0.1326,0,0,0,0,0,0,-0.028,-0.025,-0.0219,-0.0089,-0.0048,0.0155,0.0103,0.0125,0.0205,0.0205,0.0382,0.0408,0.048,0.0719,0.0762,0.0844,0.0711,0.1266,0.1278,0.1288,0.1317,0.1335,0.135,0,0,0,0,0,-0.0291,-0.0209,-0.0218,-0.0192,-0.0015,0.0158,0.0191,0.0253,0.0211,0.0292,0.0404,0.0402,0.0817,0.074,0.0788,0.0877,0.1261,0.1274,0.1287,0.131,0.1331,0.135,0,0,0,0,0,0,-0.0295,-0.0194,-0.0202,-0.0091,0.0023,0.0164,0.025,0.0268,0.0421,0.0418,0.0509,0.0551,0.0771,0.0842,0.0752,0.109,0.1029,0.1053,0.103,0.1051,0.1067,0.0995,0.0725,0,0,0,0,0,-0.0292,-0.0214,-0.0109,-0.0013,0.004,0.0137,0.0213,0.0256,0.0391,0.045,0.057,0.071,0.0874,0.0967,0.1132,0.134,0.1278,0.1424,0.144,0.1453,0.1433,0.1382,0.1387,0.1338,0.1338,0.1337,0,0,-0.0262,-0.02,-0.0152,-0.001,0.0078,0.0223,0.0177,0.0314,0.0436,0.0473,0.0695,0.0792,0.0948,0.117,0.1271,0.1231,0.1447,0.147,0.1479,0.1451,0.1395,0.1398,0.1401,0.1347,0.1345,0.1344,0,0,-0.0138,-0.0113,0.0,0.0098,0.0226,0.0301,0.0334,0.0487,0.0551,0.0773,0.0812,0.094,0.1229,0.132,0.1407,0.1623,0.1539,0.1688,0.1711,0.1663,0.1662,0.1661,0.1599,0.1592,0.1686,0.1686,0.1686,0,-0.0111,0.0033,0.007,0.0208,0.0296,0.0334,0.0487,0.0596,0.0801,0.0851,0.0854,0.1165,0.1293,0.1486,0.1561,0.1651,0.1591,0.161,0.1669,0.1667,0.1665,0.1602,0.1593,0.1689,0.1689,0.1689,0.1688,0,0.0107,0.0214,0.03,0.0465,0.0571,0.0716,0.0829,0.0935,0.0986,0.1056,0.1234,0.1375,0.1511,0.1598,0.1663,0.1745,0.1697,0.1686,0.1582,0.1669,0.1601,0.1591,0.1694,0.1693,0.1692,0.1691,0,0,0.0202,0.0404,0.0437,0.0515,0.0704,0.081,0.0994,0.1148,0.1191,0.1354,0.1415,0.1679,0.1626,0.1719,0.1774,0.1757,0.172,0.1716,0.1712,0.1588,0.1579,0.1558,0.1544,0.1686,0.1685,0.1684,0.1536,0,0.0366,0.061,0.0684,0.0919,0.105,0.1106,0.1247,0.1363,0.143,0.1501,0.1561,0.1663,0.1711,0.1726,0.1729,0.1731,0.1695,0.1759,0.1571,0.1566,0.1479,0.1533,0.1503,0.1369,0.1525,0.1524,0.1522,0,0.0578,0.0694,0.0929,0.1073,0.1128,0.125,0.1368,0.1495,0.157,0.1599,0.1641,0.1656,0.1714,0.1692,0.1669,0.1694,0.1639,0.1611,0.1603,0.1552,0.1526,0.1315,0.1343,0.1348,0.1506,0.1507,0.1508,0,0.0633,0.0869,0.1031,0.1105,0.1284,0.1345,0.1414,0.1506,0.1554,0.1601,0.159,0.1644,0.1629,0.159,0.1571,0.1591,0.1476,0.1489,0.1412,0.1408,0.1332,0.1325,0.1281,0.1413,0.1414,0.1414,0.1415,0,0.0803,0.0932,0.1041,0.1137,0.1238,0.1346,0.1418,0.1479,0.1519,0.1535,0.1588,0.1582,0.1587,0.1543,0.1523,0.1438,0.1428,0.1404,0.1369,0.1355,0.1351,0.1312,0.1338,0.1409,0.141,0.1411,0.1412,0,0.0888,0.0985,0.1133,0.126,0.1278,0.1333,0.1388,0.1411,0.1457,0.146,0.1461,0.1501,0.1448,0.1441,0.1363,0.1356,0.1284,0.1251,0.1236,0.1204,0.1165,0.1195,0.1082,0.1134,0.1139,0.1138,0.1136,0,0.0976,0.1062,0.1155,0.1165,0.1216,0.1275,0.1288,0.1365,0.1367,0.1409,0.1388,0.1364,0.1344,0.1249,0.1223,0.1149,0.119,0.1072,0.1133,0.1149,0.1156,0.1174,0.1231,0.1045,0.1043,0.1042,0.1041,0,0.1074,0.1073,0.114,0.1133,0.1148,0.1185,0.1199,0.1196,0.1258,0.1256,0.1229,0.1221,0.1183,0.1116,0.1059,0.1034,0.1099,0.1039,0.1049,0.1077,0.1095,0.1133,0.1153,0.1027,0.1029,0.103,0.103,0.1031,0.1069,0.1069,0.1072,0.1062,0.1073,0.1053,0.1033,0.1039,0.1023,0.0991,0.1053,0.1019,0.1035,0.097,0.095,0.0919,0.0983,0.0913,0.0941,0.0952,0.1034,0.1031,0.0883,0.0884,0.0884,0.0884,0.0885,0,0.1005,0.098,0.0978,0.0947,0.0918,0.0952,0.0933,0.0889,0.0814,0.0842,0.0812,0.0827,0.0797,0.0829,0.0814,0.0818,0.0872,0.0832,0.0857,0.0922,0.0885,0.0917,0.0778,0.0778,0.0778,0.0778,0.0778,0.0778,0.0959,0.0886,0.086,0.0774,0.0759,0.0687,0.0654,0.0613,0.061,0.0571,0.0587,0.0654,0.0789,0.0728,0.0748,0.0765,0.0856,0.08,0.0897,0.0871,0.0882,0.0892,0.0928,0.0794,0.0794,0.0931,0.0933,0.0933]}],[{"header":{"parameterUnit":"m.s-1","parameterCategory":2,"la1":30.2991,"la2":30.254,"lo1":-89.0895,"lo2":-89.0444,"dy":0.0017,"dx":0.0017,"nx":28,"ny":28,"refTime":"2023-08-09T09:00:00:Z","depth":"2","parameterNumber":2,"parameterNumberName":"U-component_of_CURRENTS"},"data":[0,0,0,0,0,0,0,0,0,0,0,0,0,0,0,0,0,0,0,0,0,0,0,0,0,0,0,0,0,0,0,0,0,0,0,0,0,0,0,0,0,0,0,0,0,0,0,0,0,0,0,0,0,0,0,0,0,0,0.2066,0.2067,0,0.2124,0.2124,0.2124,0.2009,0.2006,0.2003,0.2001,0.2378,0.239,0.2403,0,0,0,0,0,0,0,0,0,0,0,0,0,0.186,0.1863,0.2065,0.2067,0.2069,0.2124,0.2124,0.2124,0.2009,0.2006,0.2003,0.2,0.2374,0.2389,0.2404,0,0,0,0,0,0,0,0,0,0,0,0,0,0.1925,0.1864,0.2065,0.2028,0.2026,0.2125,0.2124,0.2123,0.201,0.2006,0.2002,0.1998,0.2369,0.2387,0.2406,0.2599,0,0,0.2463,0.2471,0,0,0,0,0,0,0,0,0.1921,0.1931,0.2032,0.2031,0.2029,0.2066,0.219,0.2303,0.2011,0.2003,0.2001,0.1996,0.2315,0.2338,0.2335,0.2617,0.2633,0.2465,0.2476,0.2484,0.2489,0,0,0,0,0,0,0,0.1917,0.1928,0.2076,0.2035,0.2033,0.2012,0.2015,0.2209,0.2176,0.2003,0.1998,0.2026,0.2314,0.2316,0.2344,0.2639,0.2464,0.2481,0.2492,0.25,0.3203,0.321,0,0,0,0,0,0,0.1941,0.1925,0.2074,0.2079,0.1979,0.202,0.2023,0.2048,0.2167,0.2182,0.203,0.2021,0.2286,0.2322,0.2357,0.2666,0.2484,0.2501,0.2512,0.3195,0.3204,0.3212,0,0,0,0,0,0,0.1936,0.1953,0.2072,0.2012,0.2028,0.2029,0.2057,0.2052,0.2081,0.2186,0.2203,0.2068,0.2285,0.2331,0.2599,0.2678,0.251,0.2527,0.3187,0.3198,0.3208,0.3242,0,0,0,0,0,0,0.193,0.1951,0.1984,0.2015,0.2033,0.2171,0.2062,0.2056,0.2109,0.2098,0.2228,0.2254,0.2285,0.2571,0.2618,0.27,0.2541,0.3177,0.3192,0.3205,0.3231,0.3253,0.3271,0,0,0,0,0,0.1922,0.1974,0.1985,0.2004,0.2075,0.2178,0.2185,0.2161,0.2116,0.2164,0.2272,0.2251,0.269,0.2595,0.2647,0.2736,0.317,0.3188,0.3204,0.3222,0.3248,0.327,0,0,0,0,0,0,0.1883,0.1971,0.1981,0.2052,0.2137,0.2163,0.224,0.2206,0.2316,0.2336,0.2385,0.2427,0.2671,0.2748,0.264,0.2988,0.2916,0.2944,0.2912,0.2938,0.2958,0.2817,0.2557,0,0,0,0,0,0.1906,0.1979,0.2058,0.2128,0.2207,0.2237,0.2279,0.2266,0.2363,0.2398,0.2494,0.2632,0.2783,0.2892,0.3041,0.3281,0.3186,0.3369,0.3389,0.3404,0.3334,0.3291,0.3294,0.3268,0.3267,0.3267,0,0,0.1895,0.1976,0.2001,0.2131,0.2218,0.2327,0.2253,0.2364,0.2419,0.2449,0.2623,0.2729,0.2869,0.3087,0.3203,0.3162,0.3373,0.3426,0.3437,0.3356,0.3307,0.3307,0.3307,0.3279,0.3277,0.3275,0,0,0.1965,0.2036,0.2141,0.2243,0.2402,0.2428,0.2477,0.2568,0.2593,0.2785,0.2798,0.2941,0.3221,0.3271,0.3344,0.3594,0.3477,0.3682,0.3672,0.3634,0.363,0.3626,0.3499,0.3482,0.3691,0.3691,0.3691,0,0.1948,0.2102,0.2187,0.2346,0.2431,0.2488,0.2609,0.2669,0.2807,0.2836,0.2868,0.3137,0.3273,0.3426,0.3496,0.3621,0.3545,0.3551,0.364,0.3635,0.3629,0.35,0.3481,0.3695,0.3695,0.3694,0.3694,0,0.2117,0.2245,0.2355,0.2553,0.264,0.2783,0.288,0.2964,0.3011,0.3018,0.3189,0.3339,0.3442,0.3551,0.3607,0.367,0.3607,0.3652,0.353,0.363,0.3493,0.3472,0.37,0.3699,0.3698,0.3697,0,0,0.2077,0.2391,0.2438,0.253,0.2763,0.2823,0.2984,0.3083,0.3081,0.3244,0.324,0.3511,0.3485,0.3565,0.3645,0.3636,0.3565,0.3626,0.3623,0.3408,0.3392,0.3118,0.3068,0.3611,0.3608,0.3606,0.3302,0,0.22,0.2468,0.2591,0.279,0.2936,0.3021,0.3109,0.3176,0.3233,0.3253,0.3353,0.3422,0.3527,0.355,0.3569,0.3572,0.3515,0.3636,0.3405,0.3395,0.3064,0.3038,0.2977,0.268,0.3281,0.3277,0.3275,0,0.2364,0.2507,0.2734,0.2868,0.2932,0.3009,0.308,0.3157,0.3202,0.3228,0.3282,0.3319,0.3371,0.3425,0.3387,0.3455,0.3402,0.3383,0.3372,0.3062,0.3081,0.2693,0.2618,0.3239,0.3242,0.3244,0.3247,0,0.2337,0.2594,0.2749,0.2832,0.3001,0.3042,0.3084,0.3139,0.3134,0.317,0.3123,0.3203,0.3184,0.3187,0.3184,0.3268,0.3051,0.3172,0.2851,0.2829,0.2693,0.2661,0.3058,0.3058,0.3059,0.306,0.3061,0,0.2453,0.2579,0.2728,0.2828,0.2858,0.2982,0.2978,0.3019,0.3015,0.2942,0.307,0.2991,0.3116,0.3039,0.3069,0.2839,0.2954,0.2756,0.2714,0.271,0.2684,0.3127,0.3139,0.3048,0.3051,0.3053,0.3055,0,0.2476,0.2625,0.2754,0.2877,0.2882,0.2891,0.2885,0.2822,0.2869,0.2766,0.2761,0.2777,0.2673,0.2723,0.2663,0.2606,0.249,0.238,0.2306,0.2256,0.2315,0.2335,0.1959,0.1946,0.1935,0.1927,0.1919,0,0.2557,0.2633,0.2723,0.2692,0.2755,0.2756,0.2695,0.2745,0.2662,0.2605,0.2502,0.2411,0.2278,0.2057,0.2011,0.1883,0.2124,0.1683,0.1833,0.2194,0.2194,0.2231,0.2265,0.1692,0.1683,0.1676,0.167,0,0.2594,0.2608,0.2646,0.256,0.251,0.2466,0.2403,0.2324,0.2324,0.2219,0.2032,0.1931,0.1749,0.1576,0.1411,0.1372,0.1714,0.1514,0.1912,0.1958,0.1912,0.1923,0.1971,0.1606,0.1613,0.1617,0.1621,0.1623,0.2544,0.2486,0.2433,0.2304,0.2268,0.2136,0.2014,0.1934,0.177,0.1603,0.1611,0.1426,0.1396,0.107,0.1012,0.1008,0.1102,0.1139,0.1177,0.1218,0.122,0.1155,0.0703,0.0704,0.0705,0.0706,0.0707,0,0.2343,0.2228,0.2125,0.1967,0.1829,0.1887,0.1739,0.1596,0.1342,0.1288,0.1128,0.0924,0.0777,0.0839,0.0708,0.0597,0.0779,0.0621,0.094,0.0996,0.1047,0.106,0.0491,0.049,0.049,0.049,0,0,0.2216,0.1994,0.1862,0.1526,0.144,0.1239,0.1135,0.0999,0.0942,0.0748,0.0676,0.0682,0.0717,0.0581,0.0548,0.0526,0.0784,0.0508,0.067,0.1099,0.1152,0.1306,0.1375,0,0,0,0,0]},{"header":{"parameterUnit":"m.s-1","parameterCategory":2,"la1":30.2991,"la2":30.254,"lo1":-89.0895,"lo2":-89.0444,"dy":0.0017,"dx":0.0017,"nx":28,"ny":28,"refTime":"2023-08-09T09:00:00:Z","depth":"2","parameterNumber":3,"parameterNumberName":"V-component_of_CURRENTS"},"data":[0,0,0,0,0,0,0,0,0,0,0,0,0,0,0,0,0,0,0,0,0,0,0,0,0,0,0,0,0,0,0,0,0,0,0,0,0,0,0,0,0,0,0,0,0,0,0,0,0,0,0,0,0,0,0,0,0,0,-0.0608,-0.0605,0,-0.0353,-0.0351,-0.0348,-0.0341,-0.0343,-0.0346,-0.0348,-0.0135,-0.0127,-0.0119,0,0,0,0,0,0,0,0,0,0,0,0,0,-0.0915,-0.0911,-0.0608,-0.0605,-0.0601,-0.0353,-0.035,-0.0348,-0.034,-0.0343,-0.0347,-0.035,-0.0137,-0.0128,-0.0118,0,0,0,0,0,0,0,0,0,0,0,0,0,-0.0738,-0.0909,-0.0609,-0.0564,-0.0557,-0.0354,-0.035,-0.0347,-0.034,-0.0344,-0.0347,-0.0351,-0.0141,-0.0129,-0.0117,0.0037,0,0,-0.008,-0.0074,0,0,0,0,0,0,0,0,-0.0749,-0.0728,-0.0574,-0.0566,-0.0558,-0.0378,-0.038,-0.0218,-0.0339,-0.0428,-0.0349,-0.0353,-0.0213,-0.0195,-0.0146,0.0047,0.0056,-0.0078,-0.0071,-0.0066,-0.0062,0,0,0,0,0,0,0,-0.0761,-0.0738,-0.0513,-0.0569,-0.056,-0.0495,-0.0477,-0.0348,-0.0307,-0.042,-0.0418,-0.0379,-0.0211,-0.0158,-0.0141,0.0059,-0.0079,-0.0068,-0.006,-0.0056,0.0431,0.0437,0,0,0,0,0,0,-0.0785,-0.075,-0.0521,-0.0505,-0.0659,-0.0487,-0.0467,-0.0436,-0.0307,-0.0289,-0.0376,-0.038,-0.0177,-0.0155,-0.0133,0.0092,-0.0066,-0.0054,-0.0047,0.0426,0.0433,0.0439,0,0,0,0,0,0,-0.0793,-0.0768,-0.0531,-0.0617,-0.0582,-0.0479,-0.0444,-0.0429,-0.0372,-0.0272,-0.0257,-0.0334,-0.0179,-0.0151,0.0026,0.0098,-0.0049,-0.0038,0.0419,0.0428,0.0436,0.052,0,0,0,0,0,0,-0.0803,-0.0772,-0.0767,-0.0619,-0.0578,-0.04,-0.0439,-0.0421,-0.034,-0.0342,-0.0229,-0.0215,-0.018,0.0008,0.0038,0.0112,-0.0028,0.0412,0.0423,0.0433,0.051,0.0531,0.0548,0,0,0,0,0,-0.0815,-0.0781,-0.0768,-0.074,-0.0571,-0.0396,-0.0369,-0.0313,-0.0334,-0.0283,-0.0189,-0.0218,0.0094,0.0025,0.0058,0.0137,0.0407,0.042,0.0432,0.0502,0.0527,0.0547,0,0,0,0,0,0,-0.091,-0.0771,-0.0756,-0.0684,-0.0549,-0.0394,-0.0327,-0.0293,-0.0177,-0.0176,-0.0119,-0.0091,0.0082,0.0122,0.0042,0.0312,0.0237,0.0257,0.0279,0.0303,0.0321,0.0217,-0.0018,0,0,0,0,0,-0.0925,-0.0867,-0.0714,-0.0652,-0.0575,-0.0449,-0.0376,-0.0325,-0.0197,-0.0154,-0.0059,0.0047,0.0169,0.0239,0.0354,0.0525,0.0442,0.0593,0.0612,0.0627,0.057,0.0491,0.0493,0.048,0.048,0.048,0,0,-0.0945,-0.0858,-0.0829,-0.0668,-0.0553,-0.0394,-0.0415,-0.0274,-0.0154,-0.0139,0.0056,0.0128,0.0233,0.0413,0.0491,0.0449,0.0612,0.0643,0.0655,0.0587,0.0503,0.0503,0.0502,0.0489,0.0487,0.0486,0,0,-0.0893,-0.0861,-0.0764,-0.0634,-0.0451,-0.0359,-0.0315,-0.0128,-0.0067,0.0141,0.0167,0.026,0.0503,0.0549,0.061,0.0807,0.0713,0.0877,0.0887,0.0815,0.0811,0.0806,0.077,0.0761,0.0882,0.0883,0.0883,0,-0.0913,-0.0769,-0.0705,-0.054,-0.0417,-0.0335,-0.0162,-0.0061,0.015,0.0197,0.0215,0.0461,0.0548,0.0684,0.0755,0.0836,0.0787,0.0786,0.0825,0.0819,0.0812,0.0774,0.0763,0.0888,0.0888,0.0887,0.0886,0,-0.0743,-0.0625,-0.0535,-0.0315,-0.0194,-0.0024,0.0131,0.0238,0.0317,0.0384,0.0531,0.0631,0.0736,0.081,0.0856,0.0889,0.0871,0.0849,0.0734,0.0815,0.0776,0.0762,0.0896,0.0894,0.0893,0.0891,0,0,-0.0722,-0.0474,-0.0425,-0.0309,-0.0053,0.0068,0.0257,0.0428,0.0478,0.0629,0.069,0.088,0.0833,0.0894,0.0936,0.088,0.0841,0.0851,0.0845,0.0754,0.0696,0.0746,0.0736,0.081,0.0807,0.0805,0.0707,0,-0.0569,-0.0286,-0.0194,0.0078,0.0258,0.0356,0.0498,0.0622,0.0698,0.0766,0.0789,0.0876,0.0901,0.0928,0.0884,0.0846,0.0799,0.0869,0.0679,0.0673,0.0656,0.0719,0.0647,0.0557,0.0693,0.069,0.0688,0,-0.0352,-0.0204,0.0073,0.0262,0.034,0.0476,0.0644,0.0772,0.0835,0.0869,0.089,0.0891,0.0894,0.0869,0.0774,0.0818,0.0757,0.0699,0.0694,0.0672,0.0695,0.0492,0.0525,0.0664,0.0666,0.0668,0.0669,0,-0.0274,0.0,0.0197,0.03,0.0519,0.0607,0.0699,0.0799,0.0853,0.0896,0.089,0.0884,0.0869,0.0775,0.0719,0.0729,0.0558,0.056,0.0544,0.0548,0.0409,0.0406,0.0435,0.0435,0.0435,0.0435,0.0436,0,-0.0078,0.0093,0.0229,0.0366,0.051,0.0641,0.0747,0.0823,0.0864,0.0872,0.091,0.0886,0.0825,0.0754,0.0687,0.0589,0.0541,0.0522,0.0511,0.0457,0.046,0.0475,0.0481,0.0432,0.0432,0.0433,0.0434,0,0.0052,0.0165,0.0375,0.0544,0.0578,0.0686,0.0775,0.0796,0.0857,0.0862,0.0871,0.0863,0.0782,0.0731,0.0579,0.0555,0.0451,0.0425,0.04,0.0388,0.0497,0.051,0.038,0.0381,0.0381,0.0381,0.0382,0,0.0161,0.0284,0.0455,0.0496,0.058,0.0694,0.0722,0.0805,0.0812,0.0832,0.081,0.0771,0.0719,0.0579,0.0503,0.0409,0.0435,0.0328,0.0335,0.0481,0.0483,0.0496,0.0508,0.0206,0.0205,0.0204,0.0203,0,0.0311,0.0354,0.0474,0.053,0.0583,0.0639,0.0693,0.0704,0.0753,0.0738,0.069,0.0651,0.057,0.045,0.0401,0.0338,0.0349,0.0311,0.0402,0.0266,0.0318,0.0322,0.0337,0.0195,0.0196,0.0196,0.0197,0.0197,0.0362,0.0422,0.0486,0.053,0.0566,0.0562,0.0568,0.0575,0.0565,0.0542,0.0552,0.0493,0.0429,0.0325,0.0282,0.0281,0.028,0.0255,0.0255,0.0257,0.0289,0.0343,0.0231,0.0232,0.0233,0.0234,0.0234,0,0.0369,0.0389,0.0437,0.0478,0.0452,0.049,0.0499,0.047,0.0406,0.0431,0.0387,0.0305,0.0235,0.024,0.0194,0.0174,0.0158,0.0202,0.0153,0.0158,0.0163,0.0191,0.0107,0.0107,0.0108,0.0108,0,0,0.037,0.0377,0.0377,0.0323,0.0328,0.0283,0.0271,0.0247,0.0267,0.0225,0.0227,0.0233,0.0223,0.017,0.0121,0.0124,0.0163,0.0134,0.0219,0.0165,0.0172,0.0157,0.0202,0,0,0,0,0]}],[{"header":{"parameterUnit":"m.s-1","parameterCategory":2,"la1":30.2991,"la2":30.254,"lo1":-89.0895,"lo2":-89.0444,"dy":0.0017,"dx":0.0017,"nx":28,"ny":28,"refTime":"2023-08-09T09:00:00:Z","depth":"4","parameterNumber":2,"parameterNumberName":"U-component_of_CURRENTS"},"data":[0,0,0,0,0,0,0,0,0,0,0,0,0,0,0,0,0,0,0,0,0,0,0,0,0,0,0,0,0,0,0,0,0,0,0,0,0,0,0,0,0,0,0,0,0,0,0,0,0,0,0,0,0,0,0,0,0,0,-0.0264,-0.0262,0,-0.0056,-0.0054,-0.0051,0.0069,0.0069,0.007,0.007,0.0223,0.0227,0.0231,0,0,0,0,0,0,0,0,0,0,0,0,0,-0.0388,-0.0388,-0.0264,-0.0262,-0.0259,-0.0057,-0.0054,-0.0051,0.0069,0.0069,0.007,0.007,0.0222,0.0227,0.0231,0,0,0,0,0,0,0,0,0,0,0,0,0,-0.0272,-0.0387,-0.0265,-0.0176,-0.0166,-0.0057,-0.0054,-0.005,0.0069,0.0069,0.007,0.007,0.0221,0.0226,0.0232,0.0257,0,0,0.0249,0.0252,0,0,0,0,0,0,0,0,-0.0279,-0.0268,-0.0192,-0.0182,-0.0171,-0.002,-0.0041,0.0049,0.0069,-0.0019,0.007,0.007,0.0135,0.0148,0.0189,0.0264,0.0271,0.025,0.0253,0.0256,0.0257,0,0,0,0,0,0,0,-0.0287,-0.0275,-0.018,-0.0189,-0.0176,-0.0089,-0.0073,-0.0022,0.0053,-0.0011,-0.0002,0.0018,0.0141,0.0183,0.0193,0.0273,0.0249,0.0255,0.0258,0.026,0.0488,0.049,0,0,0,0,0,0,-0.0325,-0.0284,-0.0187,-0.0174,-0.0226,-0.0088,-0.007,-0.0068,0.0054,0.0073,0.0018,0.0023,0.0173,0.0187,0.0199,0.0336,0.0255,0.0261,0.0264,0.0485,0.0488,0.0491,0,0,0,0,0,0,-0.0329,-0.032,-0.0195,-0.0224,-0.0202,-0.0088,-0.0085,-0.0064,0.0068,0.0076,0.0095,0.0138,0.0174,0.0191,0.0322,0.0338,0.0263,0.0268,0.0482,0.0486,0.049,0.0545,0,0,0,0,0,0,-0.0334,-0.0323,-0.0291,-0.0228,-0.0202,-0.0072,-0.0085,-0.0061,0.0073,0.0085,0.0184,0.0193,0.0176,0.0314,0.0328,0.0345,0.0273,0.0479,0.0484,0.0488,0.0539,0.055,0.0559,0,0,0,0,0,-0.0339,-0.0308,-0.0292,-0.0277,-0.0178,-0.0068,-0.0044,0.0039,0.008,0.0158,0.0224,0.0195,0.0352,0.0323,0.0338,0.0356,0.0476,0.0482,0.0488,0.0535,0.0548,0.0559,0,0,0,0,0,0,-0.0344,-0.0291,-0.0272,-0.0225,-0.0127,-0.0047,0.0044,0.01,0.022,0.0256,0.0261,0.0277,0.0379,0.0386,0.0353,0.0437,0.0397,0.0407,0.0428,0.044,0.0449,0.0337,0.0278,0,0,0,0,0,-0.0337,-0.0289,-0.0223,-0.0169,-0.0114,-0.0013,0.006,0.0124,0.0214,0.0275,0.0345,0.0394,0.0403,0.0444,0.0478,0.0559,0.0435,0.0573,0.0583,0.0591,0.0511,0.0284,0.0261,0.0511,0.0511,0.051,0,0,-0.0326,-0.0283,-0.0257,-0.0162,-0.0074,0.0009,0.0038,0.0183,0.0242,0.0268,0.0422,0.0455,0.0438,0.0502,0.0546,0.0521,0.0492,0.0598,0.0604,0.0518,0.0287,0.0261,0.0237,0.0515,0.0514,0.0513,0,0,-0.0272,-0.0229,-0.0163,-0.008,0.0062,0.0106,0.0168,0.0312,0.0377,0.0525,0.0507,0.0519,0.0675,0.0568,0.0542,0.0625,0.0552,0.0721,0.0675,0.0459,0.0432,0.0407,0.0352,0.032,0.072,0.0721,0.0721,0,-0.0247,-0.0183,-0.0115,-0.0022,0.0041,0.0154,0.0241,0.0314,0.0486,0.0481,0.0595,0.061,0.0636,0.0506,0.0568,0.0623,0.0582,0.063,0.0458,0.043,0.0402,0.0349,0.0314,0.0724,0.0724,0.0723,0.0723,0,-0.0155,-0.0082,-0.0018,0.0097,0.0175,0.0292,0.0364,0.0463,0.057,0.0585,0.059,0.0604,0.0575,0.0605,0.0641,0.0471,0.0542,0.0492,0.0401,0.0378,0.033,0.0292,0.0729,0.0728,0.0727,0.0726,0,0,-0.0135,0.0008,0.0041,0.009,0.0251,0.0311,0.0392,0.0427,0.0407,0.0545,0.0462,0.0491,0.0492,0.0457,0.0461,0.0297,0.0158,0.0375,0.0363,0.0276,-0.0169,0.0052,0.0032,0.0112,0.0103,0.0096,-0.0079,0,-0.0062,0.0065,0.0124,0.0247,0.0319,0.0388,0.0421,0.0452,0.0486,0.0446,0.0348,0.0334,0.0435,0.0452,0.0295,0.0163,0.0043,0.0217,-0.0099,-0.0108,0.0047,-0.0016,0.0067,-0.0108,-0.0117,-0.0124,-0.0129,0,0.0029,0.009,0.0207,0.0265,0.0301,0.0382,0.0382,0.0432,0.0335,0.0354,0.0261,0.0235,0.0055,0.0149,-0.0164,-0.0016,-0.0066,-0.0177,-0.0188,-0.0069,0.0034,-0.011,-0.02,-0.0194,-0.0189,-0.0184,-0.018,0,0.0011,0.0144,0.0217,0.0265,0.0353,0.0395,0.0448,0.041,0.0382,0.0295,0.023,0.0043,-0.0045,-0.0221,-0.0301,-0.0221,-0.067,-0.0625,-0.05,-0.0478,-0.0655,-0.0628,-0.0902,-0.0902,-0.0902,-0.0901,-0.0901,0,0.006,0.0123,0.0226,0.0282,0.0315,0.0405,0.0404,0.0415,0.0341,0.0228,0.0206,0.0058,-0.014,-0.0359,-0.0419,-0.0552,-0.0758,-0.0554,-0.0563,-0.0592,-0.0558,-0.0673,-0.0644,-0.0908,-0.0906,-0.0905,-0.0904,0,0.005,0.0133,0.0211,0.0308,0.033,0.038,0.0421,0.0369,0.0361,0.0195,0.018,0.0004,-0.0163,-0.0355,-0.0672,-0.0682,-0.0862,-0.0851,-0.0798,-0.0793,-0.0472,-0.0438,-0.0743,-0.0737,-0.0733,-0.0729,-0.0726,0,0.0049,0.0099,0.021,0.0239,0.0311,0.0373,0.0371,0.0398,0.0324,0.0158,0.0033,-0.0116,-0.0213,-0.0509,-0.0649,-0.078,-0.0758,-0.0845,-0.0713,-0.0506,-0.0485,-0.0456,-0.0428,-0.0719,-0.0718,-0.0717,-0.0716,0,0.0021,0.0091,0.0138,0.021,0.0259,0.0264,0.0284,0.0232,0.0199,0.01,-0.0045,-0.0118,-0.0309,-0.0432,-0.0514,-0.0624,-0.0813,-0.0799,-0.0807,-0.0683,-0.0481,-0.0458,-0.0435,-0.0701,-0.0703,-0.0705,-0.0706,0,-0.0006,0.0027,0.0119,0.0165,0.0193,0.0216,0.0226,0.0178,0.014,-0.0019,-0.0088,-0.0209,-0.0327,-0.0353,-0.0479,-0.0503,-0.0458,-0.0487,-0.051,-0.0528,-0.0369,-0.0075,-0.0235,0,0,0,0,0,-0.0034,0.0022,0.0055,0.0144,0.0153,0.0181,0.0159,0.0154,0.0061,-0.0021,-0.0014,-0.0131,-0.0188,-0.0264,-0.0233,-0.0355,-0.0466,-0.0322,-0.0512,-0.0618,-0.0635,-0.0461,0,0,0,0,0,0,-0.0018,0.003,0.0057,0.0096,0.0124,0.0153,0.0152,0.0099,0.0079,-0.0019,-0.0039,-0.012,-0.017,-0.0196,-0.0237,-0.0253,-0.0365,-0.0381,-0.038,-0.0608,-0.0624,-0.0638,-0.0465,0,0,0,0,0]},{"header":{"parameterUnit":"m.s-1","parameterCategory":2,"la1":30.2991,"la2":30.254,"lo1":-89.0895,"lo2":-89.0444,"dy":0.0017,"dx":0.0017,"nx":28,"ny":28,"refTime":"2023-08-09T09:00:00:Z","depth":"4","parameterNumber":3,"parameterNumberName":"V-component_of_CURRENTS"},"data":[0,0,0,0,0,0,0,0,0,0,0,0,0,0,0,0,0,0,0,0,0,0,0,0,0,0,0,0,0,0,0,0,0,0,0,0,0,0,0,0,0,0,0,0,0,0,0,0,0,0,0,0,0,0,0,0,0,0,0.0272,0.0271,0,0.0153,0.0151,0.015,0.0163,0.0166,0.0168,0.017,0.0023,0.0017,0.0011,0,0,0,0,0,0,0,0,0,0,0,0,0,0.0311,0.0311,0.0272,0.0271,0.027,0.0153,0.0151,0.0149,0.0163,0.0166,0.0169,0.0171,0.0025,0.0018,0.0011,0,0,0,0,0,0,0,0,0,0,0,0,0,0.0249,0.0311,0.0273,0.0266,0.0265,0.0154,0.0151,0.0149,0.0162,0.0166,0.0169,0.0173,0.0028,0.0019,0.001,-0.0116,0,0,-0.0018,-0.0022,0,0,0,0,0,0,0,0,0.0253,0.0247,0.0268,0.0267,0.0265,0.0181,0.0111,0.006,0.0161,0.0196,0.017,0.0174,0.0074,0.0061,0.0025,-0.0123,-0.013,-0.0019,-0.0024,-0.0028,-0.0031,0,0,0,0,0,0,0,0.0257,0.0251,0.022,0.0267,0.0265,0.0201,0.0197,0.01,0.0113,0.0194,0.0195,0.0188,0.0073,0.0033,0.0021,-0.0132,-0.0019,-0.0027,-0.0032,-0.0036,-0.0292,-0.0293,0,0,0,0,0,0,0.0288,0.0256,0.0224,0.0217,0.0272,0.0199,0.0194,0.02,0.0115,0.0106,0.0185,0.0189,0.0047,0.0032,0.0016,-0.0034,-0.0028,-0.0037,-0.0042,-0.029,-0.0292,-0.0293,0,0,0,0,0,0,0.0289,0.0287,0.0229,0.0237,0.0226,0.0196,0.0201,0.0196,0.0215,0.011,0.0101,0.0218,0.0049,0.0029,-0.004,-0.0043,-0.0041,-0.0049,-0.0289,-0.0291,-0.0293,-0.0202,0,0,0,0,0,0,0.0291,0.0288,0.0326,0.024,0.0227,0.019,0.0198,0.0192,0.0204,0.021,0.0132,0.0119,0.0051,-0.0026,-0.0049,-0.0056,-0.0056,-0.0287,-0.029,-0.0292,-0.0204,-0.0201,-0.0199,0,0,0,0,0,0.0293,0.0317,0.0329,0.0326,0.0273,0.019,0.0176,0.0162,0.0203,0.0196,0.015,0.0125,-0.0057,-0.0035,-0.0061,-0.0071,-0.0286,-0.0289,-0.0292,-0.0205,-0.0201,-0.0199,0,0,0,0,0,0,0.035,0.0318,0.033,0.0347,0.0291,0.0195,0.0202,0.0191,0.0148,0.0184,0.0096,0.0076,0.0011,-0.0049,-0.0022,-0.0154,-0.0173,-0.0181,-0.0098,-0.0096,-0.0093,-0.0079,-0.0064,0,0,0,0,0,0.0381,0.0405,0.0337,0.0357,0.034,0.0284,0.0265,0.0254,0.0194,0.0185,0.0136,0.0068,-0.0039,-0.0072,-0.0164,-0.024,-0.024,-0.0263,-0.026,-0.0257,-0.0266,-0.0287,-0.0285,-0.0303,-0.0303,-0.0303,0,0,0.0411,0.0399,0.0416,0.0373,0.0341,0.0289,0.0282,0.0269,0.0229,0.0168,0.0138,0.0076,-0.0059,-0.0143,-0.0176,-0.0181,-0.0238,-0.0261,-0.0257,-0.0269,-0.029,-0.0287,-0.0285,-0.0305,-0.0305,-0.0305,0,0,0.0437,0.0472,0.048,0.0436,0.0403,0.0348,0.0359,0.0299,0.0286,0.0235,0.0167,0.0102,-0.0006,-0.0129,-0.0206,-0.0254,-0.0228,-0.0252,-0.0226,-0.0244,-0.0242,-0.024,-0.0156,-0.0148,-0.0245,-0.0245,-0.0245,0,0.0485,0.047,0.0464,0.0435,0.0402,0.0381,0.0341,0.0295,0.0229,0.0184,0.0254,0.0051,-0.0021,-0.0217,-0.0202,-0.025,-0.0197,-0.0218,-0.0235,-0.0234,-0.0234,-0.015,-0.0142,-0.0241,-0.0241,-0.0242,-0.0242,0,0.047,0.0473,0.0469,0.0431,0.0394,0.0363,0.0292,0.0275,0.0293,0.0229,0.0126,0.0036,-0.008,-0.0114,-0.0157,-0.0233,-0.0169,-0.0225,-0.0227,-0.0226,-0.0138,-0.013,-0.0235,-0.0237,-0.0238,-0.0239,0,0,0.0523,0.0473,0.0476,0.0442,0.0392,0.0339,0.0291,0.018,0.0127,0.0117,0.0026,-0.0098,-0.0088,-0.0176,-0.0242,-0.0249,-0.0153,-0.0189,-0.0191,-0.0075,-0.0074,-0.0186,-0.0188,-0.0171,-0.0172,-0.0172,0.0019,0,0.0507,0.0452,0.0433,0.0367,0.0313,0.028,0.0217,0.0136,0.0089,0.0006,-0.0085,-0.0169,-0.0138,-0.0148,-0.0156,-0.0205,-0.0141,-0.0193,-0.0122,-0.0119,-0.0197,-0.0191,-0.0174,0.0024,0.0025,0.0027,0.0027,0,0.0466,0.0435,0.0376,0.0299,0.0279,0.0255,0.0145,0.0095,-0.004,-0.0057,-0.0133,-0.0192,-0.0259,-0.0187,-0.0183,-0.0189,-0.0083,-0.0076,-0.007,-0.0216,-0.0225,-0.0005,0.004,0.0039,0.0038,0.0037,0.0036,0,0.0427,0.0376,0.033,0.0304,0.0227,0.0215,0.0199,0.0086,0.002,-0.007,-0.0116,-0.0206,-0.0232,-0.0163,-0.0099,-0.0099,-0.0049,-0.0078,-0.0072,-0.0073,-0.0059,-0.0065,-0.0,-0.0,-0.0001,-0.0001,-0.0002,0,0.0356,0.0316,0.0328,0.0289,0.0243,0.023,0.0167,0.0125,0.0047,-0.0074,-0.0106,-0.0217,-0.0208,-0.0211,-0.0098,-0.0067,-0.0026,-0.0062,-0.0063,-0.0015,-0.0019,-0.0048,-0.0056,0.0006,0.0004,0.0003,0.0002,0,0.0265,0.0279,0.0219,0.0205,0.0214,0.0198,0.0189,0.0114,0.0094,-0.0057,-0.0066,-0.0196,-0.0228,-0.0206,-0.0138,-0.01,-0.0042,-0.0002,0.0122,0.0126,-0.0024,-0.003,-0.0008,-0.0011,-0.0014,-0.0016,-0.0018,0,0.019,0.0162,0.017,0.0163,0.017,0.0173,0.0148,0.0149,0.0059,-0.008,-0.0185,-0.0256,-0.0342,-0.0289,-0.0261,-0.0098,-0.0082,0.0029,-0.0072,-0.0038,-0.0039,-0.0041,-0.0043,-0.0022,-0.0023,-0.0023,-0.0024,0,0.0046,0.0088,0.0053,0.0077,0.0082,0.0041,0.0024,-0.0019,-0.0075,-0.0135,-0.0271,-0.0308,-0.0397,-0.0379,-0.0248,-0.0137,-0.0039,0.0002,0.0007,-0.0087,-0.0055,-0.0053,-0.0052,-0.0033,-0.0032,-0.0031,-0.003,0,-0.0036,-0.0055,-0.003,-0.0016,-0.0033,-0.0061,-0.0059,-0.0125,-0.0162,-0.029,-0.0343,-0.04,-0.0441,-0.0399,-0.029,-0.0216,-0.0226,-0.0146,-0.0133,-0.0122,-0.0267,-0.0249,-0.0289,0,0,0,0,0,-0.0109,-0.0096,-0.0118,-0.0091,-0.012,-0.0108,-0.0162,-0.0167,-0.0224,-0.032,-0.0309,-0.0379,-0.0367,-0.0382,-0.033,-0.0372,-0.0216,-0.0311,-0.0115,-0.0083,-0.0073,-0.0243,0,0,0,0,0,0,-0.014,-0.0153,-0.0131,-0.0155,-0.0154,-0.018,-0.0204,-0.0243,-0.0279,-0.0334,-0.0319,-0.0355,-0.0331,-0.0385,-0.0326,-0.0323,-0.0188,-0.0317,-0.0316,-0.0089,-0.008,-0.0071,-0.0243,0,0,0,0,0]}]]